Find Kosmos-2282

NORAD ID: 23168 Int'l Des: 1994-038 Owner: PVO Country: RU operational
HEOCIRCULARGSO

Aktuelle Ansicht

3D-Globus wird geladen...

About Kosmos-2282

Kosmos-2282 (NORAD 23168) is a satellite launched Jul 6, 1994 by PVO of RU. It operates in HEO, CIRCULAR, GSO orbit with a mass of 2200.00 kg.

Nächste Überflüge

Passes for default location (London). Set your location on the main map for personalized predictions.

Höhenverlauf

Loading altitude history...

Zweizeiliger Elementsatz

1 23168U 94038A 26195.16810851 .00000051 00000-0 00000+0 0 9992
2 23168 13.8635 352.5099 0006312 129.6153 56.3891 1.00287308117279
Epoch: 14. Juli 2026 • Age: 13 hours

Aktueller Status

Höhe 35787.6 km
Apogäum / Perigäum N/A
Geschwindigkeit 3.07 km/s
Subsatellitenpunkt 5.92°N, 174.74°W
Startdatum 6. Juli 1994
Alter 32 years
Typ other

Technische Details

Klassifizierung Payload
Masse 2200.00 kg
Trockenmasse 2100.00 kg
Gesamtmasse 2200.00 kg
Länge 5.00 m
Durchmesser 2.00 m
Spannweite 10.00 m
Form Step Cyl + 2 Pan
Hersteller NPOL/KOMET
Bus-Typ Prognoz
Phasenstatus In Orbit
Besitzer/Staat PVO/RU

Most Searched